Overview Statistics Trail Chart Weather Telemetry Raw packets
 

This is the latest recevied weather packets stored in our database for station/object W7TRD. If no packets are shown the sender has not sent any weather packets the latest 10 day(s).

<< 11 12 13 14 15 16 17 >>
Time Temp. Humidity Pressure Rain* Wind** Luminosity Snow
1788544330 15.56° C 84% 1014.2 hPa 0 mm - 284 W/m² -
1788544025 15° C 84% 1014.3 hPa 0 mm - 225 W/m² -
1788543721 15° C 85% 1014.1 hPa 0 mm - 254 W/m² -
1788543417 15.56° C 86% 1014.1 hPa 0 mm - 270 W/m² -
1788543111 15° C 86% 1014.1 hPa 0 mm - 303 W/m² -
1788542808 15° C 87% 1014.2 hPa 0 mm - 390 W/m² -
1788542507 13.89° C 91% 1014.1 hPa 0 mm - 312 W/m² -
1788542202 13.89° C 92% 1014.1 hPa 0 mm - 238 W/m² -
1788541897 13.33° C 92% 1013.9 hPa 0 mm - 165 W/m² -
1788541594 13.33° C 93% 1013.9 hPa 0 mm - 108 W/m² -
1788541289 13.33° C 93% 1014.1 hPa 0 mm - 94 W/m² -
1788540988 13.33° C 93% 1014 hPa 0 mm - 83 W/m² -
1788540688 12.78° C 93% 1014.1 hPa 0 mm - 86 W/m² -
1788540387 12.78° C 93% 1014 hPa 0 mm - 92 W/m² -
1788540083 12.78° C 94% 1014.1 hPa 0 mm - 100 W/m² -
1788539779 12.78° C 94% 1013.9 hPa 0 mm - 109 W/m² -
1788539474 12.78° C 94% 1013.8 hPa 0 mm - 98 W/m² -
1788539168 12.78° C 92% 1013.9 hPa 0 mm - 67 W/m² -
1788538863 12.78° C 93% 1013.9 hPa 0 mm - 58 W/m² -
1788538558 12.78° C 94% 1014 hPa 0 mm - 56 W/m² -
1788538253 12.78° C 93% 1013.7 hPa 0 mm - 67 W/m² -
1788537948 12.78° C 94% 1013.9 hPa 0 mm - 88 W/m² -
1788537644 12.78° C 95% 1013.6 hPa 0 mm - 93 W/m² -
1788537343 12.78° C 95% 1013.7 hPa 0 mm - 85 W/m² -
1788537038 12.22° C 96% 1013.9 hPa 0 mm - 73 W/m² -

* Rain latest hour (hover to see other rain measurements)
** Current wind speed in m/s (hover to see current wind gust speed)